Location: Home
(42.5358°N, 72.7383°W)
Time: 23:50:54
(UTC-05:00)

DELFI C3 - Visible Passes

Search period start: 27 January 2022 00:00
Search period end: 06 February 2022 00:00
Orbit: 525 x 543 km, 97.4° (Epoch: 27 January)

Date Brightness Start Highest point End Pass type
(mag) Time Alt. Az. Time Alt. Az. Time Alt. Az.
27 Jan ? 06:29:29 10° ENE 06:30:31 11° E 06:31:32 10° ESE visible
27 Jan ? 18:44:33 10° SSE 18:48:22 78° ENE 18:52:13 10° N visible
28 Jan ? 18:35:34 10° SSE 18:39:20 60° ENE 18:43:08 10° N visible
29 Jan ? 18:26:38 10° SSE 18:30:18 46° ENE 18:34:00 10° N visible
29 Jan ? 20:03:18 10° WSW 20:05:01 13° W 20:06:43 10° WNW visible
30 Jan ? 18:17:45 10° SE 18:21:17 36° ENE 18:24:49 10° N visible
30 Jan ? 19:53:27 10° SW 19:55:51 16° W 19:58:17 10° NW visible
31 Jan ? 18:08:57 10° SE 18:12:16 28° ENE 18:15:35 10° N visible
31 Jan ? 19:43:51 10° SW 19:46:43 20° W 19:49:36 10° NW visible
01 Feb ? 18:00:11 10° ESE 18:03:14 23° ENE 18:06:17 10° NNE visible
01 Feb ? 19:34:22 10° SSW 19:37:34 25° W 19:40:48 10° NW visible
02 Feb ? 17:51:32 10° ESE 17:54:13 19° ENE 17:56:55 10° NNE visible
02 Feb ? 19:24:59 10° SSW 19:28:26 32° W 19:31:54 10° NNW visible
03 Feb ? 17:43:00 10° E 17:45:12 15° ENE 17:47:25 10° NNE visible
03 Feb ? 19:15:41 10° S 19:19:18 41° W 19:22:57 10° NNW visible
04 Feb ? 17:34:42 10° E 17:36:12 12° ENE 17:37:41 10° NE visible
04 Feb ? 19:06:26 10° S 19:10:11 53° W 19:13:56 10° NNW visible
05 Feb ? 18:57:15 10° S 19:01:03 71° WSW 19:04:53 10° NNW visible
